{"data":{"norad_id":63018,"intl_designator":"2025-032P","name":"STARLINK-32870","alt_names":[],"object_type":"PAYLOAD","status":"ACTIVE","operator":null,"country":"US","launch_date":"2025-02-15","launch_site_code":"AFETR","launch_vehicle":null,"mission":null,"orbit_class":"UNKNOWN","rcs_meters":null,"size_class":null,"mass_kg":null,"dimensions":null,"purposes":["comms"],"wikipedia_slug":null,"has_3d_model":false,"image_url":null,"decayed_at":null,"tle_current":{"epoch":"2026-05-25T00:35:55.539168Z","epoch_age_seconds":66205,"freshness":"FRESH","line1":"1 63018U 25032P   26145.02494837  .00027553  00000+0  10069-2 0  9994","line2":"2 63018  42.9992 265.0174 0001423  33.4659 326.6283 15.27586513 72293","mean_motion":15.27586513,"eccentricity":0.0001423,"inclination_deg":42.9992,"raan_deg":265.0174,"arg_perigee_deg":33.4659,"mean_anomaly_deg":326.6283,"bstar":0.0010069,"rev_number":7229,"period_min":94.266346799044,"perigee_km":482.0532498376,"apogee_km":484.00593785021,"semimajor_km":6861.1665938439,"source":"CELESTRAK","updated_at":"2026-05-25T13:38:19.837783Z"}}}